This is the latest recevied weather packets stored in our database for station/object N1ICS-1. If no packets are shown the sender has not sent any weather packets the latest 10 day(s).
| Time | Temp. | Humidity | Pressure | Rain* | Wind** | Luminosity | Snow |
|---|---|---|---|---|---|---|---|
| 1777909501 | 20° C | 64% | 1007.8 hPa | 0 mm | - | 901 W/m² | - |
| 1777909202 | 20° C | 62% | 1008.2 hPa | 0 mm | - | 893 W/m² | - |
| 1777908902 | 20° C | 64% | 1008 hPa | 0 mm | - | 885 W/m² | - |
| 1777908602 | 20° C | 63% | 1008.2 hPa | 0 mm | - | 877 W/m² | - |
| 1777908302 | 19.44° C | 64% | 1008.1 hPa | 0 mm | - | 867 W/m² | - |
| 1777907701 | 19.44° C | 64% | 1008.1 hPa | 0 mm | - | 844 W/m² | - |
| 1777907403 | 18.89° C | 67% | 1008.3 hPa | 0 mm | - | 835 W/m² | - |
| 1777907101 | 18.33° C | 66% | 1008.2 hPa | 0 mm | - | 818 W/m² | - |
| 1777906802 | 18.33° C | 68% | 1008.5 hPa | 0 mm | - | 804 W/m² | - |
| 1777906502 | 18.33° C | 66% | 1008.4 hPa | 0 mm | - | 784 W/m² | - |
| 1777906202 | 17.78° C | 66% | 1008.4 hPa | 0 mm | - | 774 W/m² | - |
| 1777905902 | 17.78° C | 68% | 1008.6 hPa | 0 mm | - | 760 W/m² | - |
| 1777905602 | 17.22° C | 68% | 1008.5 hPa | 0 mm | - | 729 W/m² | - |
| 1777905302 | 17.22° C | 67% | 1008.5 hPa | 0 mm | - | 717 W/m² | - |
| 1777905002 | 17.22° C | 69% | 1008.3 hPa | 0 mm | - | 705 W/m² | - |
| 1777904701 | 17.22° C | 68% | 1008.4 hPa | 0 mm | - | 679 W/m² | - |
| 1777904402 | 16.67° C | 69% | 1008.5 hPa | 0 mm | - | 652 W/m² | - |
| 1777904102 | 16.67° C | 69% | 1008.1 hPa | 0 mm | - | 654 W/m² | - |
| 1777903802 | 16.67° C | 68% | 1008.5 hPa | 0 mm | - | 627 W/m² | - |
| 1777903502 | 16.11° C | 70% | 1008.4 hPa | 0 mm | - | 623 W/m² | - |
| 1777903202 | 16.67° C | 68% | 1008.4 hPa | 0 mm | - | 595 W/m² | - |
| 1777902902 | 16.11° C | 71% | 1008.3 hPa | 0 mm | - | 574 W/m² | - |
| 1777902603 | 16.11° C | 69% | 1008.5 hPa | 0 mm | - | 550 W/m² | - |
| 1777902302 | 15.56° C | 69% | 1008.5 hPa | 0 mm | - | 537 W/m² | - |
| 1777902002 | 15.56° C | 70% | 1008.5 hPa | 0 mm | - | 519 W/m² | - |
* Rain latest hour (hover to see other rain measurements)
** Current wind speed in m/s (hover to see current wind gust speed)